CW6037 Weather Reports


Display with metric or nautical units.
time (UTC)temp
F
wind
direction
speed
MPH
gust
MPH
rain 1hr
in
rain 24hr
in
rain mn
in
humidity
%
barometer
mb
20260504110239 34 166 0.0 1.0 0.00 0.00 0.00 90 1012.2
20260504100223 35 166 0.0 0.0 0.00 0.00 0.00 88 1012.1
20260504081700 39 166 0.0 3.0 0.00 0.00 0.00 80 1012.3
20260504081402 40 166 0.0 1.0 0.00 0.00 0.00 78 1012.2
20260504081254 40 166 0.0 3.0 0.00 0.00 0.00 79 1012.3
20260504080158 41 166 0.0 1.0 0.00 0.00 0.00 77 1012.3
20260504070201 41 200 0.0 3.0 0.00 0.00 0.00 77 1012.2
20260504060152 38 229 1.0 4.0 0.00 0.00 0.00 84 1012.0
20260504050640 38 271 0.0 2.0 0.00 0.00 0.00 85 1012.0
20260504050140 38 271 0.0 2.0 0.00 0.00 0.00 84 1012.0
20260504045640 38 271 0.0 2.0 0.00 0.00 0.00 84 1011.9
20260504045141 38 271 0.0 1.0 0.00 0.00 0.00 84 1012.0
20260504044641 38 271 0.0 1.0 0.00 0.00 0.00 84 1011.9
20260504044141 38 271 0.0 1.0 0.00 0.00 0.00 84 1011.9
20260504043640 39 271 0.0 1.0 0.00 0.00 0.00 84 1012.0
20260504043141 39 271 0.0 1.0 0.00 0.00 0.00 84 1011.9
20260504042640 39 271 0.0 1.0 0.00 0.00 0.00 83 1011.8
20260504042140 39 271 0.0 2.0 0.00 0.00 0.00 83 1011.8
20260504041640 39 271 0.0 2.0 0.00 0.00 0.00 83 1011.7
20260504041402 39 271 0.0 1.0 0.00 0.00 0.00 84 1011.7
20260504040641 39 271 0.0 1.0 0.00 0.00 0.00 84 1011.7
20260504040140 39 271 0.0 1.0 0.00 0.00 0.00 83 1011.6
20260504035638 39 271 0.0 1.0 0.00 0.00 0.00 83 1011.6
20260504035136 39 271 0.0 1.0 0.00 0.00 0.00 83 1011.7
20260504034629 39 271 0.0 1.0 0.00 0.00 0.00 83 1011.7
20260504034127 40 271 0.0 1.0 0.00 0.00 0.00 83 1011.7
20260504033625 40 271 0.0 1.0 0.00 0.00 0.00 82 1011.7
20260504033127 40 271 0.0 1.0 0.00 0.00 0.00 82 1011.7
20260504032625 40 271 0.0 1.0 0.00 0.00 0.00 83 1011.6
20260504032125 40 271 0.0 1.0 0.00 0.00 0.00 82 1011.6
20260504031625 40 271 0.0 1.0 0.00 0.00 0.00 81 1011.7
20260504031123 40 271 0.0 1.0 0.00 0.00 0.00 80 1011.7
20260504030623 40 271 0.0 1.0 0.00 0.00 0.00 80 1011.7
20260504030121 40 271 0.0 1.0 0.00 0.00 0.00 79 1011.7
20260504025621 40 271 0.0 1.0 0.00 0.00 0.00 79 1011.6
20260504025344 41 271 0.0 1.0 0.00 0.00 0.00 79 1011.6
20260504024624 41 271 0.0 2.0 0.00 0.00 0.00 79 1011.6
20260504024119 41 271 0.0 2.0 0.00 0.00 0.00 78 1011.7
20260504023617 41 271 0.0 2.0 0.00 0.00 0.00 78 1011.6
20260504023115 41 271 0.0 1.0 0.00 0.00 0.00 77 1011.6
20260504022615 42 271 0.0 1.0 0.00 0.00 0.00 77 1011.7
20260504022341 42 271 0.0 2.0 0.00 0.00 0.00 75 1011.7
20260504021611 42 271 0.0 2.0 0.00 0.00 0.00 75 1011.6
20260504021111 42 271 0.0 2.0 0.00 0.00 0.00 74 1011.7
20260504020607 42 271 0.0 2.0 0.00 0.00 0.00 73 1011.6
20260504020328 43 271 0.0 1.0 0.00 0.00 0.00 72 1011.7
20260504015604 43 271 0.0 1.0 0.00 0.00 0.00 71 1011.7
20260504015101 44 271 0.0 2.0 0.00 0.00 0.00 71 1011.6
20260504014558 44 271 0.0 2.0 0.00 0.00 0.00 69 1011.5
20260504014330 44 271 0.0 1.0 0.00 0.00 0.00 69 1011.5
20260504013559 44 271 0.0 0.0 0.00 0.00 0.00 67 1011.4
20260504013057 45 271 0.0 2.0 0.00 0.00 0.00 67 1011.4
20260504012555 45 271 0.0 2.0 0.00 0.00 0.00 66 1011.3
20260504012312 46 271 0.0 1.0 0.00 0.00 0.00 66 1011.3
20260504011555 46 271 0.0 1.0 0.00 0.00 0.00 65 1011.3
20260504011055 47 271 0.0 1.0 0.00 0.00 0.00 64 1011.1
20260504010557 47 271 0.0 1.0 0.00 0.00 0.00 63 1010.9
20260504010053 48 271 0.0 1.0 0.00 0.00 0.00 62 1011.0
20260504005556 48 271 0.0 1.0 0.00 0.00 0.00 62 1011.1
20260504005055 49 271 0.0 2.0 0.00 0.00 0.00 59 1011.0
20260504004552 49 271 0.0 2.0 0.00 0.00 0.00 58 1011.0
20260504004317 50 271 0.0 0.0 0.00 0.00 0.00 57 1011.0
20260504003554 50 271 0.0 1.0 0.00 0.00 0.00 57 1011.1
20260504003049 51 271 0.0 1.0 0.00 0.00 0.00 56 1010.9
20260504002549 51 271 0.0 0.0 0.00 0.00 0.00 55 1010.8
20260504002047 52 271 0.0 1.0 0.00 0.00 0.00 54 1010.7
20260504001547 52 271 1.0 3.0 0.00 0.00 0.00 52 1010.7
20260504001047 53 271 1.0 3.0 0.00 0.00 0.00 51 1010.7
20260504000545 53 271 0.0 1.0 0.00 0.00 0.00 50 1010.7
20260504000307 53 271 0.0 2.0 0.00 0.00 0.00 49 1010.6
20260503235541 54 271 0.0 2.0 0.00 0.00 0.00 48 1010.6
20260503235304 54 271 1.0 3.0 0.00 0.00 0.00 47 1010.6
20260503234532 55 271 1.0 4.0 0.00 0.00 0.00 46 1010.6
20260503234038 55 272 1.0 6.0 0.00 0.00 0.00 45 1010.5
20260503233535 55 272 1.0 6.0 0.00 0.00 0.00 45 1010.5
20260503233033 55 323 2.0 9.0 0.00 0.00 0.00 44 1010.5
20260503232534 55 252 3.0 9.0 0.00 0.00 0.00 44 1010.5
20260503232250 56 306 3.0 9.0 0.00 0.00 0.00 44 1010.5
20260503231533 56 271 3.0 10.0 0.00 0.00 0.00 44 1010.5
20260503231031 56 287 5.0 21.0 0.00 0.00 0.00 44 1010.5
20260503230800 56 298 5.0 21.0 0.00 0.00 0.00 42 1010.5
20260503230031 56 258 4.0 9.0 0.00 0.00 0.00 45 1010.5
20260503225531 57 344 5.0 13.0 0.00 0.00 0.00 43 1010.5
20260503225033 57 284 5.0 13.0 0.00 0.00 0.00 43 1010.5
20260503224533 57 307 3.0 11.0 0.00 0.00 0.00 45 1010.5
20260503224030 56 288 2.0 6.0 0.00 0.00 0.00 44 1010.5
20260503223531 57 266 2.0 13.0 0.00 0.00 0.00 43 1010.3
20260503223032 57 295 3.0 13.0 0.00 0.00 0.00 43 1010.4
20260503222531 57 257 4.0 14.0 0.00 0.00 0.00 42 1010.4
20260503222033 58 300 4.0 14.0 0.00 0.00 0.00 42 1010.5
20260503221533 58 36 3.0 10.0 0.00 0.00 0.00 42 1010.5
20260503221300 57 260 4.0 11.0 0.00 0.00 0.00 44 1010.5
20260503220531 58 317 6.0 11.0 0.00 0.00 0.00 42 1010.4
20260503220029 58 257 5.0 11.0 0.00 0.00 0.00 42 1010.5
20260503215528 58 272 4.0 15.0 0.00 0.00 0.00 42 1010.6
20260503215028 58 289 5.0 15.0 0.00 0.00 0.00 42 1010.6
20260503214528 58 339 4.0 12.0 0.00 0.00 0.00 41 1010.5
20260503214029 58 290 5.0 12.0 0.00 0.00 0.00 41 1010.5
20260503213529 59 319 4.0 12.0 0.00 0.00 0.00 39 1010.4
20260503213029 58 302 4.0 11.0 0.00 0.00 0.00 40 1010.5
20260503212528 58 280 6.0 16.0 0.00 0.00 0.00 39 1010.4
20260503212028 58 97 6.0 16.0 0.00 0.00 0.00 39 1010.5
20260503211531 58 271 4.0 12.0 0.00 0.00 0.00 39 1010.3
20260503211029 57 5 4.0 12.0 0.00 0.00 0.00 38 1010.3
20260503210526 58 275 4.0 13.0 0.00 0.00 0.00 38 1010.4
20260503210504 58 15 4.0 13.0 0.00 0.00 0.00 37 1010.4
20260503205524 60 276 5.0 19.0 0.00 0.00 0.00 37 1010.2
20260503205233 59 277 9.0 23.0 0.00 0.00 0.00 36 1010.0
20260503205117 60 32 7.0 19.0 0.00 0.00 0.00 40 1010.0
20260503204022 59 275 7.0 23.0 0.00 0.00 0.00 37 1010.2
20260503203523 59 304 5.0 16.0 0.00 0.00 0.00 37 1010.2
20260503203023 59 261 5.0 16.0 0.00 0.00 0.00 38 1010.2
20260503202524 59 282 5.0 14.0 0.00 0.00 0.00 37 1010.2
20260503202237 59 277 4.0 13.0 0.00 0.00 0.00 39 1010.0
20260503201514 59 275 5.0 15.0 0.00 0.00 0.00 37 1010.2
20260503201017 59 292 7.0 15.0 0.00 0.00 0.00 38 1010.0
20260503200514 59 249 7.0 16.0 0.00 0.00 0.00 36 1010.2
20260503200014 59 239 6.0 16.0 0.00 0.00 0.00 37 1010.3
20260503195514 59 273 4.0 11.0 0.00 0.00 0.00 36 1010.4
20260503195014 59 272 4.0 15.0 0.00 0.00 0.00 36 1010.4
20260503194514 59 269 6.0 15.0 0.00 0.00 0.00 36 1010.4
20260503194014 59 306 7.0 18.0 0.00 0.00 0.00 36 1010.5
20260503193514 58 266 7.0 18.0 0.00 0.00 0.00 36 1010.5
20260503193014 58 251 6.0 17.0 0.00 0.00 0.00 37 1010.6
20260503192514 58 280 7.0 17.0 0.00 0.00 0.00 36 1010.9
20260503192231 58 246 8.0 16.0 0.00 0.00 0.00 40 1010.8
20260503191514 58 305 7.0 16.0 0.00 0.00 0.00 38 1011.0
20260503191016 58 255 3.0 13.0 0.00 0.00 0.00 41 1011.2
20260503190732 57 217 4.0 13.0 0.00 0.00 0.00 41 1011.1
20260503190010 57 9 5.0 16.0 0.00 0.00 0.00 41 1011.3
20260503185510 58 248 5.0 16.0 0.00 0.00 0.00 38 1011.5
20260503185012 57 259 5.0 13.0 0.00 0.00 0.00 42 1011.6
20260503184510 56 340 5.0 15.0 0.00 0.00 0.00 42 1011.5
20260503184235 57 355 5.0 15.0 0.00 0.00 0.00 42 1011.7
20260503183511 56 258 4.0 13.0 0.00 0.00 0.00 42 1011.8
20260503183010 56 309 4.0 10.0 0.00 0.00 0.00 44 1011.8
20260503182510 55 186 6.0 16.0 0.00 0.00 0.00 43 1011.7
20260503182009 55 281 6.0 16.0 0.00 0.00 0.00 39 1011.8
20260503181512 56 257 5.0 12.0 0.00 0.00 0.00 39 1011.8
20260503181010 56 273 5.0 12.0 0.00 0.00 0.00 43 1011.9
20260503180510 55 292 6.0 14.0 0.00 0.00 0.00 42 1012.0
20260503180010 55 323 6.0 14.0 0.00 0.00 0.00 41 1011.9
20260503175512 55 286 6.0 19.0 0.00 0.00 0.00 43 1012.0
20260503175012 54 259 8.0 19.0 0.00 0.00 0.00 45 1011.9
20260503174510 53 334 9.0 19.0 0.00 0.00 0.00 39 1012.1
20260503174010 53 275 8.0 19.0 0.00 0.00 0.00 42 1012.0
20260503173510 53 251 5.0 17.0 0.00 0.00 0.00 41 1012.1
20260503173011 53 303 4.0 13.0 0.00 0.00 0.00 43 1012.1
20260503172508 53 286 3.0 15.0 0.00 0.00 0.00 43 1012.1
20260503172226 52 80 6.0 18.0 0.00 0.00 0.00 47 1012.2
20260503171508 52 300 8.0 21.0 0.00 0.00 0.00 43 1012.2
20260503171009 52 267 5.0 21.0 0.00 0.00 0.00 43 1012.2
20260503170508 52 269 5.0 14.0 0.00 0.00 0.00 45 1012.3
20260503150731 48 327 4.0 16.0 0.00 0.00 0.00 48 1012.8
20260503130955 43 275 2.0 9.0 0.00 0.01 0.00 69 1013.2
20260503130713 42 24 2.0 9.0 0.00 0.01 0.00 72 1013.3